ANA874 VHHH-RJBB

Flight info

Callsign ANA874
Flight time 2h 46m
Altitude 37000
Route DALOL V631 ENVAR M750 MADOG Y53 NIXOV
Aircraft B77W/H-SDE1E2E3FGHIJ2J3J4J5M1RWXY/LB1D1

Departure

Time 2026-05-04 11:06
Airport Hong Kong International Airport (VHHH)

Arrival

Time 2026-05-04 13:52
Airport Kansai International Airport (RJBB)
Time Latitude Longitude Altitude Speed Heading
2026-05-04 10:34 22.31510 113.92483 39 ft 0 kts 206°
2026-05-04 10:51 22.31580 113.92526 39 ft 1 kts 241°
2026-05-04 10:52 22.31584 113.92539 39 ft 1 kts 259°
2026-05-04 10:52 22.31585 113.92551 39 ft 1 kts 276°
2026-05-04 10:52 22.31583 113.92564 39 ft 1 kts 294°
2026-05-04 10:54 22.31579 113.92570 39 ft 0 kts 296°
2026-05-04 10:56 22.31569 113.92147 39 ft 20 kts 251°
2026-05-04 10:56 22.31506 113.92069 39 ft 11 kts 190°
2026-05-04 10:56 22.31471 113.92062 39 ft 2 kts 163°
2026-05-04 10:57 22.31440 113.92079 39 ft 7 kts 152°
2026-05-04 10:57 22.31370 113.92113 39 ft 13 kts 158°
2026-05-04 10:57 22.31264 113.92155 39 ft 19 kts 161°
2026-05-04 10:57 22.31127 113.92205 39 ft 19 kts 161°
2026-05-04 10:58 22.31004 113.92251 39 ft 14 kts 161°
2026-05-04 10:58 22.30933 113.92277 39 ft 8 kts 161°
2026-05-04 10:58 22.30884 113.92295 39 ft 5 kts 161°
2026-05-04 10:58 22.30860 113.92303 39 ft 0 kts 161°
2026-05-04 10:59 22.30859 113.92303 39 ft 0 kts 161°
2026-05-04 10:59 22.30842 113.92310 39 ft 5 kts 161°
2026-05-04 10:59 22.30787 113.92329 39 ft 10 kts 161°
2026-05-04 10:59 22.30712 113.92310 39 ft 13 kts 238°
2026-05-04 11:00 22.30670 113.92194 39 ft 18 kts 250°
2026-05-04 11:01 22.30249 113.90882 39 ft 23 kts 251°
2026-05-04 11:02 22.30192 113.90705 39 ft 25 kts 251°
2026-05-04 11:02 22.30132 113.90519 39 ft 26 kts 251°
2026-05-04 11:05 22.29862 113.90551 39 ft 114 kts 71°
2026-05-04 11:06 22.30193 113.91582 96 ft 169 kts 70°
2026-05-04 11:06 22.30600 113.92763 855 ft 170 kts 69°
2026-05-04 11:06 22.30986 113.93893 1852 ft 163 kts 71°
2026-05-04 11:06 22.31341 113.95069 2365 ft 176 kts 73°
2026-05-04 11:08 22.33502 114.05840 6119 ft 269 kts 116°
2026-05-04 11:10 22.20698 114.08862 11160 ft 316 kts 174°
2026-05-04 11:12 22.09100 114.23754 15663 ft 422 kts 124°
2026-05-04 11:12 22.07557 114.26469 16561 ft 426 kts 124°
2026-05-04 11:12 22.06000 114.29207 17346 ft 433 kts 124°
2026-05-04 11:12 22.04429 114.31967 18166 ft 437 kts 124°
2026-05-04 11:13 22.02833 114.34774 19035 ft 440 kts 124°
2026-05-04 11:13 22.01242 114.37568 19813 ft 444 kts 124°
2026-05-04 11:13 21.99613 114.40427 20492 ft 451 kts 124°
2026-05-04 11:13 21.97965 114.43317 21202 ft 457 kts 124°
2026-05-04 11:14 21.97420 114.44273 21460 ft 458 kts 124°
2026-05-04 11:16 21.80496 114.73882 27925 ft 505 kts 125°
2026-05-04 11:16 21.78754 114.77155 28539 ft 512 kts 119°
2026-05-04 11:16 21.77422 114.80764 29110 ft 522 kts 109°
2026-05-04 11:17 21.76616 114.84611 29629 ft 531 kts 99°
2026-05-04 11:17 21.76382 114.88562 30129 ft 539 kts 90°
2026-05-04 11:19 21.78913 115.16621 34993 ft 537 kts 84°
2026-05-04 11:19 21.79290 115.20641 35709 ft 535 kts 84°
2026-05-04 11:19 21.79662 115.24618 36310 ft 533 kts 84°
2026-05-04 11:19 21.80032 115.28585 36803 ft 534 kts 84°
2026-05-04 11:20 21.80398 115.32509 37028 ft 537 kts 84°
2026-05-04 11:20 21.80772 115.36546 37024 ft 536 kts 84°
2026-05-04 11:20 21.81508 115.44492 37028 ft 537 kts 84°
2026-05-04 11:22 21.84421 115.76417 37022 ft 538 kts 84°
2026-05-04 11:23 21.85145 115.84463 37024 ft 538 kts 84°
2026-05-04 11:25 21.87631 116.12416 37022 ft 537 kts 84°
2026-05-04 11:25 21.88334 116.20412 37029 ft 538 kts 84°
2026-05-04 11:27 21.91441 116.56330 37031 ft 536 kts 85°
2026-05-04 11:28 21.92124 116.64358 37035 ft 537 kts 85°
2026-05-04 11:28 21.92798 116.72320 37026 ft 536 kts 85°
2026-05-04 11:29 21.93473 116.80348 37024 ft 542 kts 85°
2026-05-04 11:29 21.94148 116.88411 37025 ft 541 kts 85°
2026-05-04 11:33 21.98804 117.44812 37048 ft 539 kts 81°
2026-05-04 11:33 22.00881 117.52521 37060 ft 540 kts 64°
2026-05-04 11:34 22.04551 117.59523 37056 ft 538 kts 56°
2026-05-04 11:34 22.08806 117.66149 37049 ft 536 kts 50°
2026-05-04 11:35 22.13364 117.72537 37027 ft 536 kts 50°
2026-05-04 11:35 22.17887 117.78879 37039 ft 535 kts 50°
2026-05-04 11:36 22.22422 117.85245 37038 ft 535 kts 50°
2026-05-04 11:36 22.26946 117.91603 37032 ft 536 kts 50°
2026-05-04 11:37 22.31496 117.98005 37041 ft 536 kts 50°
2026-05-04 11:37 22.36030 118.04392 37043 ft 537 kts 50°
2026-05-04 11:38 22.40580 118.10810 37043 ft 537 kts 50°
2026-05-04 11:38 22.45129 118.17233 37047 ft 538 kts 50°
2026-05-04 11:39 22.49652 118.23630 37050 ft 538 kts 50°
2026-05-04 11:41 22.65495 118.46092 37055 ft 536 kts 50°
2026-05-04 11:41 22.70012 118.52512 37056 ft 538 kts 50°
2026-05-04 11:42 22.74568 118.58999 37056 ft 537 kts 49°
2026-05-04 11:42 22.79084 118.65434 37056 ft 538 kts 50°
2026-05-04 11:43 22.83602 118.71881 37049 ft 538 kts 50°
2026-05-04 11:43 22.88144 118.78371 37043 ft 538 kts 50°
2026-05-04 11:44 22.92654 118.84822 37051 ft 539 kts 50°
2026-05-04 11:44 22.97174 118.91296 37051 ft 538 kts 50°
2026-05-04 11:45 23.01729 118.97829 37053 ft 539 kts 49°
2026-05-04 11:45 23.06252 119.04322 37059 ft 540 kts 49°
2026-05-04 11:46 23.10744 119.10781 37051 ft 539 kts 49°
2026-05-04 11:46 23.15301 119.17340 37058 ft 541 kts 49°
2026-05-04 11:47 23.19822 119.23856 37056 ft 541 kts 50°
2026-05-04 11:47 23.24356 119.30400 37059 ft 541 kts 49°
2026-05-04 11:48 23.28874 119.36929 37054 ft 541 kts 49°
2026-05-04 11:48 23.33396 119.43471 37053 ft 541 kts 49°
2026-05-04 11:49 23.37903 119.50002 37060 ft 542 kts 49°
2026-05-04 11:49 23.42447 119.56592 37058 ft 543 kts 49°
2026-05-04 11:50 23.46955 119.63142 37062 ft 541 kts 49°
2026-05-04 11:50 23.51472 119.69710 37042 ft 542 kts 50°
2026-05-04 11:51 23.56009 119.76318 37045 ft 543 kts 50°
2026-05-04 11:51 23.60513 119.82883 37043 ft 543 kts 50°
2026-05-04 11:52 23.65016 119.89459 37044 ft 543 kts 49°
2026-05-04 11:52 23.69553 119.96093 37045 ft 542 kts 50°
2026-05-04 11:53 23.74038 120.02659 37044 ft 543 kts 49°
2026-05-04 11:53 23.78560 120.09286 37052 ft 547 kts 50°
2026-05-04 11:55 23.96650 120.35890 37064 ft 546 kts 49°
2026-05-04 11:56 24.01167 120.42554 37068 ft 548 kts 50°
2026-05-04 11:56 24.05676 120.49218 37073 ft 547 kts 50°
2026-05-04 11:57 24.10230 120.55954 37079 ft 548 kts 50°
2026-05-04 11:57 24.14755 120.62660 37079 ft 546 kts 50°
2026-05-04 11:58 24.19273 120.69361 37071 ft 549 kts 50°
2026-05-04 11:58 24.23791 120.76074 37078 ft 549 kts 50°
2026-05-04 11:59 24.28323 120.82816 37113 ft 550 kts 50°
2026-05-04 11:59 24.32836 120.89540 37140 ft 548 kts 50°
2026-05-04 12:00 24.37377 120.96313 37186 ft 550 kts 50°
2026-05-04 12:00 24.41887 121.03050 37239 ft 551 kts 50°
2026-05-04 12:01 24.46612 121.09620 37253 ft 548 kts 47°
2026-05-04 12:02 24.63324 121.32598 37216 ft 552 kts 47°
2026-05-04 12:03 24.68089 121.39193 37185 ft 551 kts 47°
2026-05-04 12:03 24.72848 121.45789 37167 ft 552 kts 47°
2026-05-04 12:04 24.77631 121.52429 37161 ft 551 kts 47°
2026-05-04 12:04 24.82372 121.59022 37158 ft 553 kts 47°
2026-05-04 12:05 24.87174 121.65709 37156 ft 553 kts 48°
2026-05-04 12:05 24.91963 121.72248 37148 ft 550 kts 45°
2026-05-04 12:06 24.97021 121.78636 37150 ft 554 kts 45°
2026-05-04 12:06 25.02072 121.85033 37155 ft 550 kts 45°
2026-05-04 12:07 25.07105 121.91431 37153 ft 552 kts 45°
2026-05-04 12:07 25.12121 121.97826 37156 ft 552 kts 45°
2026-05-04 12:08 25.17111 122.04250 37156 ft 552 kts 45°
2026-05-04 12:08 25.22085 122.10702 37158 ft 552 kts 45°
2026-05-04 12:09 25.27078 122.17189 37159 ft 552 kts 45°
2026-05-04 12:09 25.32055 122.23662 37162 ft 553 kts 45°
2026-05-04 12:10 25.37022 122.30131 37159 ft 553 kts 45°
2026-05-04 12:10 25.42011 122.36636 37162 ft 553 kts 45°
2026-05-04 12:11 25.46980 122.43125 37169 ft 555 kts 45°
2026-05-04 12:11 25.51952 122.49624 37163 ft 554 kts 45°
2026-05-04 12:12 25.56986 122.56161 37162 ft 558 kts 45°
2026-05-04 12:12 25.61988 122.62666 37170 ft 554 kts 45°
2026-05-04 12:14 25.82026 122.88821 37148 ft 557 kts 45°
2026-05-04 12:15 25.87043 122.95393 37153 ft 559 kts 45°
2026-05-04 12:15 25.92059 123.01974 37158 ft 558 kts 45°
2026-05-04 12:16 25.97091 123.08590 37158 ft 559 kts 45°
2026-05-04 12:16 26.02070 123.15148 37157 ft 557 kts 45°
2026-05-04 12:17 26.07105 123.21787 37157 ft 559 kts 45°
2026-05-04 12:17 26.12087 123.28367 37155 ft 557 kts 45°
2026-05-04 12:18 26.17091 123.34984 37149 ft 559 kts 45°
2026-05-04 12:18 26.22067 123.41575 37155 ft 560 kts 45°
2026-05-04 12:19 26.27093 123.48241 37158 ft 558 kts 45°
2026-05-04 12:19 26.32084 123.54871 37163 ft 560 kts 45°
2026-05-04 12:20 26.37078 123.61516 37164 ft 558 kts 45°
2026-05-04 12:20 26.42048 123.68137 37139 ft 561 kts 45°
2026-05-04 12:21 26.47063 123.74828 37148 ft 561 kts 46°
2026-05-04 12:21 26.52059 123.81504 37146 ft 561 kts 45°
2026-05-04 12:22 26.57049 123.88182 37146 ft 563 kts 46°
2026-05-04 12:22 26.62060 123.94899 37152 ft 562 kts 45°
2026-05-04 12:23 26.67081 124.01636 37155 ft 563 kts 45°
2026-05-04 12:23 26.72087 124.08332 37157 ft 561 kts 45°
2026-05-04 12:24 26.77097 124.15039 37156 ft 564 kts 45°
2026-05-04 12:24 26.82108 124.21762 37157 ft 562 kts 45°
2026-05-04 12:25 26.87107 124.28476 37160 ft 565 kts 45°
2026-05-04 12:25 26.92133 124.35240 37163 ft 565 kts 45°
2026-05-04 12:26 26.97140 124.41990 37163 ft 562 kts 45°
2026-05-04 12:26 27.02152 124.48750 37165 ft 565 kts 45°
2026-05-04 12:27 27.07156 124.55509 37168 ft 562 kts 45°
2026-05-04 12:27 27.12160 124.62278 37166 ft 565 kts 45°
2026-05-04 12:28 27.17163 124.69057 37138 ft 565 kts 45°
2026-05-04 12:28 27.22190 124.75879 37142 ft 566 kts 46°
2026-05-04 12:29 27.27177 124.82655 37143 ft 568 kts 46°
2026-05-04 12:29 27.32208 124.89504 37149 ft 566 kts 46°
2026-05-04 12:30 27.37222 124.96340 37140 ft 569 kts 46°
2026-05-04 12:30 27.42252 125.03184 37143 ft 566 kts 45°
2026-05-04 12:31 27.47308 125.09996 37146 ft 566 kts 45°
2026-05-04 12:31 27.52326 125.16770 37149 ft 567 kts 45°
2026-05-04 12:32 27.59937 125.27068 37145 ft 567 kts 45°
2026-05-04 12:33 27.64984 125.33911 37150 ft 573 kts 46°
2026-05-04 12:33 27.70044 125.40786 37149 ft 568 kts 45°
2026-05-04 12:34 27.75108 125.47675 37150 ft 570 kts 45°
2026-05-04 12:34 27.80157 125.54555 37156 ft 572 kts 45°
2026-05-04 12:35 27.85209 125.61452 37161 ft 570 kts 45°
2026-05-04 12:35 27.90256 125.68353 37137 ft 571 kts 45°
2026-05-04 12:36 27.95294 125.75251 37139 ft 571 kts 45°
2026-05-04 12:36 28.00357 125.82197 37141 ft 570 kts 45°
2026-05-04 12:37 28.05363 125.89074 37153 ft 571 kts 46°
2026-05-04 12:37 28.10422 125.96035 37161 ft 570 kts 46°
2026-05-04 12:38 28.15461 126.02981 37166 ft 573 kts 45°
2026-05-04 12:38 28.20513 126.09957 37160 ft 571 kts 45°
2026-05-04 12:39 28.25562 126.16939 37149 ft 572 kts 46°
2026-05-04 12:39 28.30561 126.23862 37156 ft 572 kts 46°
2026-05-04 12:40 28.35610 126.30868 37158 ft 573 kts 46°
2026-05-04 12:40 28.40639 126.37858 37161 ft 573 kts 46°
2026-05-04 12:41 28.45698 126.44899 37155 ft 576 kts 46°
2026-05-04 12:41 28.50721 126.51907 37159 ft 571 kts 45°
2026-05-04 12:42 28.55771 126.58958 37162 ft 573 kts 45°
2026-05-04 12:42 28.60758 126.65936 37152 ft 574 kts 46°
2026-05-04 12:43 28.65825 126.73036 37131 ft 573 kts 46°
2026-05-04 12:43 28.70825 126.80056 37131 ft 575 kts 45°
2026-05-04 12:44 28.75868 126.87146 37130 ft 575 kts 45°
2026-05-04 12:44 28.80866 126.94187 37136 ft 577 kts 45°
2026-05-04 12:45 28.85911 127.01305 37133 ft 574 kts 46°
2026-05-04 12:45 28.90934 127.08404 37139 ft 578 kts 46°
2026-05-04 12:46 28.95951 127.15507 37143 ft 576 kts 45°
2026-05-04 12:46 29.00974 127.22633 37148 ft 576 kts 46°
2026-05-04 12:47 29.05987 127.29752 37151 ft 579 kts 45°
2026-05-04 12:47 29.11022 127.36919 37144 ft 577 kts 45°
2026-05-04 12:48 29.16039 127.44070 37145 ft 581 kts 45°
2026-05-04 12:48 29.21063 127.51247 37148 ft 578 kts 46°
2026-05-04 12:49 29.26123 127.58485 37147 ft 578 kts 46°
2026-05-04 12:49 29.31135 127.65667 37144 ft 581 kts 46°
2026-05-04 12:50 29.36197 127.72933 37125 ft 583 kts 46°
2026-05-04 12:50 29.41226 127.80165 37121 ft 583 kts 47°
2026-05-04 12:51 29.46280 127.87448 37128 ft 582 kts 47°
2026-05-04 12:51 29.51323 127.94725 37131 ft 584 kts 46°
2026-05-04 12:52 29.56366 128.02014 37131 ft 583 kts 46°
2026-05-04 12:52 29.61436 128.09348 37132 ft 587 kts 46°
2026-05-04 12:53 29.66466 128.16640 37137 ft 583 kts 46°
2026-05-04 12:53 29.71536 128.23997 37134 ft 589 kts 46°
2026-05-04 12:54 29.76574 128.31329 37137 ft 586 kts 46°
2026-05-04 12:54 29.81628 128.38693 37137 ft 587 kts 46°
2026-05-04 12:55 29.86675 128.46062 37136 ft 586 kts 46°
2026-05-04 12:55 29.91714 128.53432 37140 ft 588 kts 47°
2026-05-04 12:56 29.96768 128.60837 37139 ft 588 kts 46°
2026-05-04 12:56 30.01817 128.68249 37116 ft 591 kts 46°
2026-05-04 12:57 30.06859 128.75664 37113 ft 589 kts 47°
2026-05-04 12:57 30.11908 128.83104 37112 ft 592 kts 47°
2026-05-04 12:58 30.16991 128.90610 37110 ft 587 kts 47°
2026-05-04 12:58 30.22012 128.98033 37111 ft 591 kts 47°
2026-05-04 12:59 30.27069 129.05525 37113 ft 590 kts 47°
2026-05-04 12:59 30.32111 129.13011 37112 ft 589 kts 47°
2026-05-04 13:00 30.37094 129.20425 37119 ft 587 kts 47°
2026-05-04 13:00 30.42134 129.27933 37124 ft 591 kts 47°
2026-05-04 13:01 30.47143 129.35413 37123 ft 587 kts 47°
2026-05-04 13:01 30.52155 129.42908 37129 ft 590 kts 47°
2026-05-04 13:02 30.57149 129.50392 37130 ft 588 kts 47°
2026-05-04 13:02 30.62186 129.57954 37127 ft 590 kts 47°
2026-05-04 13:03 30.67175 129.65457 37127 ft 591 kts 47°
2026-05-04 13:03 30.72209 129.73044 37108 ft 593 kts 48°
2026-05-04 13:04 30.77234 129.80633 37109 ft 590 kts 48°
2026-05-04 13:04 30.82225 129.88184 37113 ft 594 kts 48°
2026-05-04 13:05 30.86861 129.96046 37114 ft 593 kts 54°
2026-05-04 13:05 30.91196 130.04196 37115 ft 596 kts 54°
2026-05-04 13:06 30.95514 130.12341 37116 ft 591 kts 54°
2026-05-04 13:06 31.00110 130.20360 37128 ft 594 kts 48°
2026-05-04 13:07 31.05057 130.27983 37118 ft 588 kts 47°
2026-05-04 13:07 31.10013 130.35614 37135 ft 593 kts 49°
2026-05-04 13:08 31.14970 130.43260 37118 ft 592 kts 49°
2026-05-04 13:08 31.19952 130.50963 37124 ft 593 kts 49°
2026-05-04 13:09 31.24865 130.58572 37131 ft 590 kts 49°
2026-05-04 13:09 31.29841 130.66292 37124 ft 594 kts 49°
2026-05-04 13:10 31.34796 130.73999 37113 ft 592 kts 49°
2026-05-04 13:10 31.39738 130.81699 37115 ft 593 kts 49°
2026-05-04 13:11 31.44687 130.89423 37114 ft 596 kts 49°
2026-05-04 13:11 31.49614 130.97131 37123 ft 594 kts 49°
2026-05-04 13:12 31.54565 131.04892 37124 ft 594 kts 49°
2026-05-04 13:12 31.59512 131.12662 37134 ft 596 kts 49°
2026-05-04 13:13 31.64422 131.20389 37127 ft 594 kts 49°
2026-05-04 13:13 31.69374 131.28195 37126 ft 599 kts 50°
2026-05-04 13:14 31.74306 131.35991 37124 ft 595 kts 49°
2026-05-04 13:14 31.79278 131.43860 37126 ft 600 kts 50°
2026-05-04 13:15 31.84219 131.51700 37121 ft 597 kts 49°
2026-05-04 13:15 31.89161 131.59557 37129 ft 600 kts 49°
2026-05-04 13:16 31.94097 131.67421 37103 ft 597 kts 49°
2026-05-04 13:16 31.99027 131.75290 37097 ft 600 kts 49°
2026-05-04 13:17 32.03949 131.83164 37098 ft 598 kts 49°
2026-05-04 13:17 32.08889 131.91080 37103 ft 602 kts 50°
2026-05-04 13:18 32.13842 131.99039 37087 ft 597 kts 50°
2026-05-04 13:18 32.18747 132.06934 37086 ft 600 kts 50°
2026-05-04 13:19 32.23683 132.14894 37096 ft 603 kts 49°
2026-05-04 13:19 32.28606 132.22855 37094 ft 598 kts 50°
2026-05-04 13:20 32.33497 132.30775 37097 ft 601 kts 50°
2026-05-04 13:20 32.38407 132.38745 37101 ft 598 kts 51°
2026-05-04 13:21 32.43281 132.46674 37108 ft 601 kts 50°
2026-05-04 13:21 32.48198 132.54688 37109 ft 599 kts 50°
2026-05-04 13:22 32.53068 132.62645 37110 ft 598 kts 50°
2026-05-04 13:22 32.57977 132.70679 37088 ft 601 kts 51°
2026-05-04 13:23 32.62824 132.78632 37088 ft 597 kts 51°
2026-05-04 13:23 32.67715 132.86671 37091 ft 601 kts 51°
2026-05-04 13:24 32.72554 132.94644 37091 ft 596 kts 51°
2026-05-04 13:24 32.77321 133.02522 36458 ft 588 kts 51°
2026-05-04 13:25 32.82071 133.10513 34632 ft 593 kts 53°
2026-05-04 13:25 32.84433 133.14497 33804 ft 594 kts 52°
2026-05-04 13:25 32.86808 133.18504 32948 ft 596 kts 53°
2026-05-04 13:25 32.89214 133.22569 32061 ft 597 kts 53°
2026-05-04 13:26 32.91592 133.26590 31174 ft 598 kts 53°
2026-05-04 13:26 32.93979 133.30629 30496 ft 594 kts 53°
2026-05-04 13:26 32.96307 133.34573 30051 ft 586 kts 53°
2026-05-04 13:26 32.98640 133.38530 29552 ft 580 kts 53°
2026-05-04 13:27 33.00944 133.42441 29015 ft 575 kts 53°
2026-05-04 13:27 33.03239 133.46339 28464 ft 570 kts 53°
2026-05-04 13:27 33.05489 133.50163 27922 ft 566 kts 53°
2026-05-04 13:27 33.07724 133.53969 27358 ft 562 kts 53°
2026-05-04 13:28 33.09969 133.57793 26817 ft 558 kts 52°
2026-05-04 13:28 33.12186 133.61574 26225 ft 554 kts 52°
2026-05-04 13:28 33.14392 133.65338 25638 ft 550 kts 53°
2026-05-04 13:28 33.16561 133.69045 25056 ft 545 kts 53°
2026-05-04 13:29 33.18730 133.72754 24473 ft 541 kts 52°
2026-05-04 13:29 33.20856 133.76395 23889 ft 537 kts 52°
2026-05-04 13:29 33.22965 133.80009 23344 ft 532 kts 52°
2026-05-04 13:29 33.25089 133.83653 22757 ft 528 kts 52°
2026-05-04 13:30 33.27170 133.87225 22192 ft 524 kts 52°
2026-05-04 13:30 33.29232 133.90768 21591 ft 521 kts 52°
2026-05-04 13:30 33.31287 133.94302 20981 ft 517 kts 52°
2026-05-04 13:30 33.33312 133.97789 20334 ft 510 kts 52°
2026-05-04 13:31 33.35317 134.01247 19533 ft 495 kts 52°
2026-05-04 13:31 33.37233 134.04556 18944 ft 476 kts 52°
2026-05-04 13:31 33.39060 134.07712 18461 ft 459 kts 52°
2026-05-04 13:31 33.40850 134.10806 17984 ft 440 kts 52°
2026-05-04 13:32 33.42565 134.13773 17448 ft 425 kts 52°
2026-05-04 13:32 33.44215 134.16625 17020 ft 421 kts 52°
2026-05-04 13:32 33.45894 134.19528 16430 ft 425 kts 52°
2026-05-04 13:32 33.47572 134.22435 15795 ft 425 kts 52°
2026-05-04 13:33 33.49229 134.25307 15211 ft 423 kts 51°
2026-05-04 13:33 33.50893 134.28195 14632 ft 420 kts 51°
2026-05-04 13:33 33.52559 134.31090 14067 ft 418 kts 51°
2026-05-04 13:33 33.54180 134.33908 13515 ft 415 kts 51°
2026-05-04 13:34 33.55816 134.36755 12923 ft 413 kts 51°
2026-05-04 13:34 33.57454 134.39606 12308 ft 411 kts 51°
2026-05-04 13:34 33.59052 134.42390 11729 ft 408 kts 51°
2026-05-04 13:34 33.60704 134.45146 11141 ft 402 kts 46°
2026-05-04 13:35 33.62639 134.47464 10796 ft 385 kts 35°
2026-05-04 13:35 33.66592 134.51306 10708 ft 349 kts 33°
2026-05-04 13:35 33.68452 134.53098 10580 ft 337 kts 33°
2026-05-04 13:36 33.70256 134.54829 10431 ft 325 kts 32°
2026-05-04 13:36 33.72030 134.56430 10280 ft 309 kts 22°
2026-05-04 13:36 33.73946 134.57352 10116 ft 292 kts 11°
2026-05-04 13:36 33.75837 134.58041 10112 ft 277 kts
2026-05-04 13:37 33.77678 134.58701 9891 ft 272 kts
2026-05-04 13:37 33.79497 134.59349 9547 ft 271 kts
2026-05-04 13:37 33.81294 134.59990 9306 ft 266 kts 10°
2026-05-04 13:37 33.83051 134.60616 9274 ft 268 kts
2026-05-04 13:38 33.84862 134.61259 9269 ft 268 kts
2026-05-04 13:38 33.86637 134.61891 9272 ft 267 kts
2026-05-04 13:38 33.88421 134.62527 9281 ft 267 kts
2026-05-04 13:38 33.90204 134.63275 9268 ft 272 kts 21°
2026-05-04 13:39 33.91799 134.64557 9273 ft 279 kts 29°
2026-05-04 13:39 33.93373 134.65947 9270 ft 279 kts 30°
2026-05-04 13:39 33.94937 134.67335 9264 ft 279 kts 30°
2026-05-04 13:39 33.96500 134.68726 9126 ft 280 kts 30°
2026-05-04 13:40 33.98042 134.70097 8964 ft 272 kts 30°
2026-05-04 13:40 33.99547 134.71440 8834 ft 269 kts 29°
2026-05-04 13:40 34.01050 134.72777 8676 ft 266 kts 29°
2026-05-04 13:40 34.02533 134.74100 8400 ft 263 kts 29°
2026-05-04 13:41 34.03988 134.75395 8077 ft 262 kts 29°
2026-05-04 13:41 34.05464 134.76710 7743 ft 261 kts 29°
2026-05-04 13:41 34.06910 134.78000 7431 ft 259 kts 29°
2026-05-04 13:42 34.09801 134.80577 6784 ft 257 kts 30°
2026-05-04 13:42 34.11237 134.81859 6470 ft 256 kts 29°
2026-05-04 13:42 34.12667 134.83136 6157 ft 254 kts 30°
2026-05-04 13:42 34.14084 134.84401 5845 ft 253 kts 30°
2026-05-04 13:43 34.15503 134.85667 5533 ft 252 kts 30°
2026-05-04 13:43 34.16909 134.86923 5230 ft 251 kts 30°
2026-05-04 13:43 34.18301 134.88168 4919 ft 250 kts 31°
2026-05-04 13:43 34.19694 134.89414 4616 ft 249 kts 31°
2026-05-04 13:44 34.21098 134.90671 4313 ft 248 kts 31°
2026-05-04 13:44 34.22452 134.91884 4144 ft 241 kts 31°
2026-05-04 13:44 34.23775 134.93071 4072 ft 228 kts 31°
2026-05-04 13:44 34.24976 134.94212 4010 ft 218 kts 38°
2026-05-04 13:45 34.25979 134.95575 3871 ft 213 kts 43°
2026-05-04 13:45 34.26910 134.96950 3675 ft 206 kts 45°
2026-05-04 13:45 34.27780 134.98245 3496 ft 194 kts 44°
2026-05-04 13:45 34.28619 134.99489 3343 ft 184 kts 44°
2026-05-04 13:46 34.29402 135.00645 3199 ft 177 kts 44°
2026-05-04 13:46 34.30185 135.01802 3057 ft 176 kts 44°
2026-05-04 13:46 34.30954 135.02940 2910 ft 176 kts 44°
2026-05-04 13:46 34.31735 135.04097 2760 ft 176 kts 44°
2026-05-04 13:47 34.32505 135.05237 2613 ft 176 kts 44°
2026-05-04 13:47 34.33169 135.06508 2465 ft 179 kts 63°
2026-05-04 13:47 34.33521 135.07938 2263 ft 176 kts 68°
2026-05-04 13:47 34.33831 135.09358 2061 ft 175 kts 68°
2026-05-04 13:48 34.34141 135.10773 1864 ft 174 kts 68°
2026-05-04 13:48 34.34543 135.12129 1663 ft 170 kts 51°
2026-05-04 13:48 34.35226 135.13333 1483 ft 170 kts 49°
2026-05-04 13:48 34.35952 135.14439 1372 ft 170 kts 44°
2026-05-04 13:49 34.36704 135.15523 1316 ft 165 kts 44°
2026-05-04 13:49 34.37408 135.16562 1310 ft 153 kts 44°
2026-05-04 13:49 34.38069 135.17532 1170 ft 145 kts 44°
2026-05-04 13:49 34.38702 135.18466 996 ft 143 kts 44°
2026-05-04 13:50 34.39331 135.19395 803 ft 142 kts 44°
2026-05-04 13:50 34.39960 135.20323 614 ft 143 kts 45°
2026-05-04 13:50 34.40457 135.21057 455 ft 142 kts 45°
2026-05-04 13:50 34.41089 135.21989 255 ft 142 kts 45°
2026-05-04 13:51 34.41725 135.22920 65 ft 143 kts 45°
2026-05-04 13:51 34.42306 135.23773 25 ft 111 kts 49°
2026-05-04 13:51 34.42710 135.24374 25 ft 78 kts 51°
2026-05-04 13:51 34.43005 135.24815 25 ft 56 kts 51°
2026-05-04 13:52 34.43373 135.25259 25 ft 25 kts 28°
2026-05-04 13:52 34.43519 135.25334 25 ft 21 kts 20°
2026-05-04 13:52 34.43629 135.25415 25 ft 16 kts 47°
2026-05-04 13:53 34.43697 135.25503 25 ft 14 kts 47°
2026-05-04 13:53 34.43757 135.25545 25 ft 10 kts 341°
2026-05-04 13:53 34.43819 135.25493 25 ft 10 kts 322°
2026-05-04 13:54 34.43933 135.25380 25 ft 10 kts 320°
2026-05-04 13:54 34.43984 135.25330 25 ft 4 kts 311°
2026-05-04 13:54 34.43971 135.25281 25 ft 3 kts 233°
2026-05-04 13:55 34.43959 135.25261 25 ft 2 kts 232°
2026-05-04 13:55 34.43950 135.25247 25 ft 0 kts 232°